Location: Plainartige
(45.6866°N, 1.7993°E)
Time: 04:56:33
(UTC+00:00)

Vanguard 1 - Pass Details

Date: 01 June 2022
Orbit: 649 x 3833 km, 34.2° (Epoch: 06 July)

Event Time Altitude Azimuth Distance (km) Brightness Sun altitude
Rises 02:26:45 0° 261° (W) 5,468 13.5 -13.6°
Reaches altitude 10° 02:29:48 10° 257° (WSW) 4,811 13.1 -13.2°
Maximum altitude 02:44:22 57° 184° (S) 3,602 12.6 -11.6°
Drops below altitude 10° 03:06:24 10° 115° (ESE) 6,937 14.7 -9.0°
Sets 03:11:57 0° 112° (ESE) 7,927 15.0 -8.3°
